| time (UTC) | temp F | wind direction | speed MPH | gust MPH | rain 1hr in | rain 24hr in | rain mn in | humidity % | barometer mb |
| 20260905190705 | 62 | 301 | 0.0 | 0.0 | 0.00 | 0.02 | 0.02 | 66 | 1019.4 |
| 20260905190206 | 62 | 301 | 0.0 | 0.0 | 0.00 | 0.02 | 0.02 | 66 | 1019.4 |
| 20260905185705 | 63 | 301 | 0.0 | 0.0 | 0.00 | 0.02 | 0.02 | 66 | 1019.3 |
| 20260905184706 | 63 | 301 | 0.0 | 0.0 | 0.00 | 0.02 | 0.02 | 64 | 1019.2 |
| 20260905183723 | 63 | 301 | 0.0 | 0.0 | 0.00 | 0.02 | 0.02 | 63 | 1019.1 |
| 20260905183205 | 64 | 301 | 0.0 | 0.0 | 0.00 | 0.02 | 0.02 | 62 | 1019.1 |
| 20260905182705 | 64 | 301 | 0.0 | 0.0 | 0.00 | 0.02 | 0.02 | 61 | 1019.0 |
| 20260905181205 | 65 | 301 | 0.0 | 0.0 | 0.00 | 0.02 | 0.02 | 59 | 1018.9 |
| 20260905180705 | 65 | 301 | 0.0 | 0.0 | 0.00 | 0.02 | 0.02 | 59 | 1018.8 |
| 20260905180205 | 66 | 301 | 0.0 | 0.0 | 0.00 | 0.02 | 0.02 | 58 | 1018.7 |
| 20260905175705 | 66 | 301 | 0.0 | 0.0 | 0.00 | 0.02 | 0.02 | 57 | 1018.7 |
| 20260905175205 | 66 | 301 | 0.0 | 7.0 | 0.00 | 0.02 | 0.02 | 56 | 1018.6 |
| 20260905174705 | 66 | 301 | 1.0 | 7.0 | 0.00 | 0.02 | 0.02 | 55 | 1018.6 |
| 20260905174206 | 66 | 301 | 1.0 | 7.0 | 0.00 | 0.02 | 0.02 | 54 | 1018.5 |
| 20260905173706 | 67 | 292 | 0.0 | 2.0 | 0.00 | 0.02 | 0.02 | 54 | 1018.5 |
| 20260905173206 | 67 | 297 | 0.0 | 2.0 | 0.00 | 0.02 | 0.02 | 53 | 1018.4 |
| 20260905172705 | 67 | 297 | 0.0 | 1.0 | 0.00 | 0.02 | 0.02 | 53 | 1018.4 |
| 20260905172205 | 67 | 293 | 0.0 | 3.0 | 0.00 | 0.02 | 0.02 | 52 | 1018.2 |
| 20260905171705 | 67 | 293 | 0.0 | 3.0 | 0.00 | 0.02 | 0.02 | 51 | 1018.1 |
| 20260905171206 | 67 | 293 | 0.0 | 1.0 | 0.00 | 0.02 | 0.02 | 51 | 1018.1 |
| 20260905170706 | 68 | 294 | 0.0 | 3.0 | 0.00 | 0.02 | 0.02 | 50 | 1018.1 |
| 20260905170206 | 68 | 296 | 0.0 | 3.0 | 0.00 | 0.02 | 0.02 | 50 | 1017.9 |
| 20260905165705 | 68 | 283 | 0.0 | 3.0 | 0.00 | 0.02 | 0.02 | 49 | 1017.8 |
| 20260905164705 | 69 | 289 | 2.0 | 9.0 | 0.00 | 0.02 | 0.02 | 48 | 1017.7 |
| 20260905164205 | 69 | 282 | 3.0 | 9.0 | 0.00 | 0.02 | 0.02 | 48 | 1017.6 |
| 20260905163705 | 69 | 300 | 2.0 | 5.0 | 0.00 | 0.02 | 0.02 | 47 | 1017.4 |
| 20260905162706 | 70 | 279 | 2.0 | 8.0 | 0.00 | 0.02 | 0.02 | 48 | 1017.4 |
| 20260905162205 | 70 | 289 | 2.0 | 8.0 | 0.00 | 0.02 | 0.02 | 47 | 1017.2 |
| 20260905161705 | 70 | 297 | 1.0 | 9.0 | 0.00 | 0.02 | 0.02 | 47 | 1017.2 |
| 20260905160705 | 70 | 277 | 3.0 | 12.0 | 0.00 | 0.02 | 0.02 | 47 | 1017.1 |
| 20260905160206 | 71 | 300 | 3.0 | 12.0 | 0.00 | 0.02 | 0.02 | 46 | 1017.1 |
| 20260905155706 | 71 | 288 | 2.0 | 6.0 | 0.00 | 0.02 | 0.02 | 47 | 1017.0 |
| 20260905155205 | 71 | 267 | 1.0 | 6.0 | 0.00 | 0.02 | 0.02 | 48 | 1017.0 |
| 20260905154705 | 71 | 257 | 2.0 | 6.0 | 0.00 | 0.02 | 0.02 | 49 | 1016.9 |
| 20260905154206 | 71 | 294 | 1.0 | 4.0 | 0.00 | 0.02 | 0.02 | 49 | 1016.9 |
| 20260905153705 | 71 | 278 | 0.0 | 4.0 | 0.00 | 0.02 | 0.02 | 50 | 1016.9 |
| 20260905153205 | 71 | 246 | 0.0 | 3.0 | 0.00 | 0.02 | 0.02 | 51 | 1016.8 |
| 20260905152705 | 71 | 249 | 0.0 | 3.0 | 0.00 | 0.02 | 0.02 | 52 | 1016.9 |
| 20260905152206 | 71 | 240 | 0.0 | 2.0 | 0.00 | 0.02 | 0.02 | 51 | 1016.9 |
| 20260905151705 | 71 | 220 | 0.0 | 2.0 | 0.00 | 0.02 | 0.02 | 50 | 1017.0 |
| 20260905151205 | 72 | 250 | 0.0 | 2.0 | 0.00 | 0.02 | 0.02 | 50 | 1017.0 |
| 20260905150705 | 71 | 229 | 0.0 | 8.0 | 0.00 | 0.02 | 0.02 | 51 | 1017.1 |
| 20260905150205 | 71 | 248 | 1.0 | 8.0 | 0.00 | 0.02 | 0.02 | 51 | 1017.0 |
| 20260905145705 | 72 | 288 | 1.0 | 8.0 | 0.00 | 0.02 | 0.02 | 49 | 1017.1 |
| 20260905145205 | 72 | 286 | 1.0 | 12.0 | 0.00 | 0.02 | 0.02 | 49 | 1017.1 |
| 20260905144705 | 73 | 237 | 2.0 | 12.0 | 0.00 | 0.02 | 0.02 | 48 | 1017.0 |
| 20260905144206 | 73 | 286 | 3.0 | 12.0 | 0.00 | 0.02 | 0.02 | 48 | 1017.0 |
| 20260905143705 | 74 | 328 | 2.0 | 10.0 | 0.00 | 0.02 | 0.02 | 48 | 1017.1 |
| 20260905143205 | 74 | 284 | 2.0 | 11.0 | 0.00 | 0.02 | 0.02 | 48 | 1017.2 |
| 20260905142205 | 74 | 243 | 1.0 | 11.0 | 0.00 | 0.02 | 0.02 | 47 | 1017.1 |
| 20260905141706 | 74 | 265 | 1.0 | 10.0 | 0.00 | 0.02 | 0.02 | 47 | 1017.2 |
| 20260905141206 | 74 | 259 | 1.0 | 10.0 | 0.00 | 0.02 | 0.02 | 48 | 1017.2 |
| 20260905140705 | 73 | 240 | 2.0 | 10.0 | 0.00 | 0.02 | 0.02 | 48 | 1017.2 |
| 20260905140205 | 73 | 234 | 2.0 | 12.0 | 0.00 | 0.02 | 0.02 | 48 | 1017.3 |
| 20260905135705 | 73 | 280 | 4.0 | 12.0 | 0.00 | 0.02 | 0.02 | 48 | 1017.1 |
| 20260905135206 | 73 | 313 | 5.0 | 11.0 | 0.00 | 0.02 | 0.02 | 48 | 1017.2 |
| 20260905133725 | 73 | 255 | 2.0 | 10.0 | 0.00 | 0.02 | 0.02 | 48 | 1017.2 |
| 20260905133228 | 72 | 282 | 3.0 | 13.0 | 0.00 | 0.02 | 0.02 | 48 | 1017.3 |
| 20260905132705 | 72 | 263 | 4.0 | 13.0 | 0.00 | 0.02 | 0.02 | 48 | 1017.3 |
| 20260905132205 | 72 | 277 | 5.0 | 13.0 | 0.00 | 0.02 | 0.02 | 48 | 1017.3 |
| 20260905131705 | 72 | 282 | 4.0 | 11.0 | 0.00 | 0.02 | 0.02 | 49 | 1017.3 |
| 20260905131206 | 71 | 243 | 4.0 | 11.0 | 0.00 | 0.02 | 0.02 | 49 | 1017.3 |
| 20260905130705 | 71 | 252 | 2.0 | 10.0 | 0.00 | 0.02 | 0.02 | 49 | 1017.4 |
| 20260905130206 | 71 | 277 | 3.0 | 10.0 | 0.00 | 0.02 | 0.02 | 50 | 1017.3 |
| 20260905125706 | 71 | 275 | 4.0 | 10.0 | 0.00 | 0.02 | 0.02 | 50 | 1017.3 |
| 20260905125205 | 71 | 300 | 4.0 | 12.0 | 0.00 | 0.02 | 0.02 | 51 | 1017.3 |
| 20260905124706 | 71 | 314 | 3.0 | 12.0 | 0.00 | 0.02 | 0.02 | 51 | 1017.4 |
| 20260905124206 | 71 | 287 | 4.0 | 12.0 | 0.00 | 0.02 | 0.02 | 51 | 1017.4 |
| 20260905123705 | 71 | 265 | 4.0 | 11.0 | 0.00 | 0.02 | 0.02 | 51 | 1017.4 |
| 20260905123206 | 71 | 260 | 4.0 | 13.0 | 0.00 | 0.02 | 0.02 | 51 | 1017.4 |
| 20260905122706 | 71 | 311 | 5.0 | 15.0 | 0.00 | 0.02 | 0.02 | 51 | 1017.5 |
| 20260905122205 | 71 | 290 | 6.0 | 15.0 | 0.00 | 0.02 | 0.02 | 51 | 1017.5 |
| 20260905121706 | 71 | 278 | 7.0 | 15.0 | 0.00 | 0.02 | 0.02 | 51 | 1017.5 |
| 20260905120705 | 72 | 309 | 3.0 | 14.0 | 0.00 | 0.02 | 0.02 | 50 | 1017.5 |
| 20260905120206 | 72 | 279 | 2.0 | 14.0 | 0.00 | 0.02 | 0.02 | 52 | 1017.4 |
| 20260905115705 | 71 | 281 | 3.0 | 14.0 | 0.00 | 0.02 | 0.02 | 52 | 1017.3 |
| 20260905115205 | 71 | 306 | 3.0 | 7.0 | 0.00 | 0.02 | 0.02 | 54 | 1017.4 |
| 20260905114706 | 71 | 316 | 2.0 | 10.0 | 0.00 | 0.02 | 0.02 | 56 | 1017.4 |
| 20260905114205 | 71 | 306 | 3.0 | 10.0 | 0.00 | 0.02 | 0.02 | 57 | 1017.4 |
| 20260905113719 | 71 | 309 | 2.0 | 10.0 | 0.00 | 0.02 | 0.02 | 58 | 1017.5 |
| 20260905113206 | 71 | 292 | 1.0 | 11.0 | 0.00 | 0.02 | 0.02 | 55 | 1017.6 |
| 20260905112706 | 71 | 246 | 3.0 | 11.0 | 0.00 | 0.02 | 0.02 | 57 | 1017.6 |
| 20260905112205 | 71 | 290 | 4.0 | 11.0 | 0.00 | 0.02 | 0.02 | 57 | 1017.6 |
| 20260905111705 | 71 | 267 | 3.0 | 10.0 | 0.00 | 0.02 | 0.02 | 58 | 1017.8 |
| 20260905111205 | 70 | 287 | 4.0 | 10.0 | 0.00 | 0.02 | 0.02 | 58 | 1017.7 |
| 20260905110705 | 70 | 303 | 4.0 | 10.0 | 0.00 | 0.02 | 0.02 | 58 | 1017.7 |
| 20260905110205 | 71 | 282 | 3.0 | 10.0 | 0.00 | 0.02 | 0.02 | 58 | 1017.7 |
| 20260905105705 | 70 | 304 | 3.0 | 10.0 | 0.00 | 0.02 | 0.02 | 59 | 1017.7 |
| 20260905104705 | 70 | 294 | 4.0 | 10.0 | 0.00 | 0.02 | 0.02 | 60 | 1017.7 |
| 20260905104205 | 70 | 308 | 5.0 | 12.0 | 0.00 | 0.02 | 0.02 | 61 | 1017.6 |
| 20260905103705 | 69 | 313 | 4.0 | 12.0 | 0.00 | 0.02 | 0.02 | 61 | 1017.7 |
| 20260905103205 | 70 | 295 | 3.0 | 12.0 | 0.00 | 0.02 | 0.02 | 61 | 1017.7 |
| 20260905102705 | 70 | 291 | 2.0 | 8.0 | 0.00 | 0.02 | 0.02 | 60 | 1017.7 |
| 20260905102207 | 70 | 298 | 2.0 | 10.0 | 0.00 | 0.02 | 0.02 | 62 | 1017.6 |
| 20260905101705 | 69 | 242 | 1.0 | 10.0 | 0.00 | 0.02 | 0.02 | 62 | 1017.7 |
| 20260905101205 | 69 | 236 | 1.0 | 11.0 | 0.00 | 0.02 | 0.02 | 63 | 1017.7 |
| 20260905100705 | 69 | 263 | 3.0 | 11.0 | 0.00 | 0.02 | 0.02 | 66 | 1017.7 |
| 20260905100206 | 68 | 278 | 3.0 | 11.0 | 0.00 | 0.02 | 0.02 | 66 | 1017.8 |
| 20260905095706 | 67 | 281 | 1.0 | 10.0 | 0.00 | 0.02 | 0.02 | 67 | 1017.9 |
| 20260905095205 | 67 | 243 | 2.0 | 10.0 | 0.00 | 0.02 | 0.02 | 68 | 1017.9 |
| 20260905094706 | 67 | 302 | 3.0 | 13.0 | 0.00 | 0.02 | 0.02 | 68 | 1018.0 |
| 20260905094206 | 67 | 288 | 4.0 | 13.0 | 0.00 | 0.02 | 0.02 | 68 | 1018.0 |
| 20260905093705 | 67 | 271 | 4.0 | 13.0 | 0.00 | 0.02 | 0.02 | 69 | 1018.1 |
| 20260905092705 | 66 | 283 | 2.0 | 9.0 | 0.00 | 0.02 | 0.02 | 71 | 1018.0 |
| 20260905092205 | 65 | 278 | 2.0 | 5.0 | 0.00 | 0.02 | 0.02 | 70 | 1018.2 |
| 20260905091705 | 65 | 249 | 1.0 | 5.0 | 0.00 | 0.02 | 0.02 | 72 | 1018.1 |
| 20260905090206 | 63 | 261 | 1.0 | 5.0 | 0.00 | 0.02 | 0.02 | 73 | 1017.7 |
| 20260905085706 | 63 | 271 | 1.0 | 5.0 | 0.00 | 0.02 | 0.02 | 74 | 1018.0 |
| 20260905085206 | 63 | 302 | 1.0 | 4.0 | 0.00 | 0.02 | 0.02 | 75 | 1018.1 |
| 20260905084706 | 63 | 296 | 1.0 | 4.0 | 0.00 | 0.02 | 0.02 | 76 | 1017.7 |
| 20260905084206 | 62 | 279 | 1.0 | 4.0 | 0.00 | 0.02 | 0.02 | 76 | 1017.5 |
| 20260905083705 | 62 | 260 | 0.0 | 1.0 | 0.00 | 0.02 | 0.02 | 78 | 1017.6 |
| 20260905083205 | 62 | 215 | 0.0 | 1.0 | 0.00 | 0.02 | 0.02 | 77 | 1017.1 |
| 20260905082706 | 62 | 215 | 0.0 | 0.0 | 0.00 | 0.02 | 0.02 | 80 | 1017.3 |
| 20260905082206 | 62 | 253 | 0.0 | 0.0 | 0.00 | 0.02 | 0.02 | 81 | 1017.4 |
| 20260905081705 | 62 | 265 | 0.0 | 0.0 | 0.00 | 0.02 | 0.02 | 82 | 1017.6 |
| 20260905081206 | 62 | 265 | 0.0 | 0.0 | 0.00 | 0.02 | 0.02 | 82 | 1017.7 |
| 20260905080705 | 62 | 265 | 0.0 | 1.0 | 0.00 | 0.02 | 0.02 | 82 | 1017.9 |
| 20260905080205 | 62 | 265 | 0.0 | 2.0 | 0.00 | 0.02 | 0.02 | 82 | 1017.9 |
| 20260905075705 | 62 | 265 | 0.0 | 2.0 | 0.00 | 0.02 | 0.02 | 82 | 1017.8 |
| 20260905074705 | 61 | 273 | 0.0 | 1.0 | 0.00 | 0.02 | 0.02 | 82 | 1018.1 |
| 20260905074206 | 61 | 307 | 0.0 | 1.0 | 0.00 | 0.02 | 0.02 | 82 | 1018.1 |
| 20260905073706 | 61 | 307 | 0.0 | 1.0 | 0.00 | 0.02 | 0.02 | 82 | 1018.2 |
| 20260905073206 | 61 | 284 | 0.0 | 1.0 | 0.01 | 0.02 | 0.02 | 82 | 1018.1 |
| 20260905072705 | 61 | 274 | 0.0 | 1.0 | 0.01 | 0.02 | 0.02 | 82 | 1017.8 |
| 20260905072206 | 61 | 282 | 0.0 | 1.0 | 0.01 | 0.02 | 0.02 | 82 | 1017.3 |
| 20260905071705 | 61 | 158 | 0.0 | 0.0 | 0.01 | 0.02 | 0.02 | 83 | 1017.1 |
| 20260905071206 | 61 | 157 | 0.0 | 0.0 | 0.01 | 0.02 | 0.02 | 83 | 1016.8 |
| 20260905070721 | 61 | 157 | 0.0 | 0.0 | 0.01 | 0.02 | 0.02 | 83 | 1017.0 |
| 20260905070205 | 61 | 133 | 0.0 | 0.0 | 0.02 | 0.02 | 0.02 | 83 | 1016.8 |
| 20260905065205 | 61 | 126 | 0.0 | 0.0 | 0.02 | 0.02 | 0.02 | 82 | 1016.7 |
| 20260905064705 | 62 | 126 | 0.0 | 0.0 | 0.02 | 0.02 | 0.02 | 83 | 1016.9 |
| 20260905064206 | 62 | 126 | 0.0 | 1.0 | 0.02 | 0.02 | 0.02 | 83 | 1016.6 |
| 20260905063705 | 62 | 126 | 0.0 | 1.0 | 0.02 | 0.02 | 0.02 | 82 | 1016.7 |
| 20260905062706 | 62 | 275 | 0.0 | 1.0 | 0.01 | 0.01 | 0.01 | 83 | 1017.0 |
| 20260905062206 | 62 | 299 | 0.0 | 2.0 | 0.01 | 0.01 | 0.01 | 84 | 1017.0 |
| 20260905061705 | 62 | 299 | 0.0 | 2.0 | 0.01 | 0.01 | 0.01 | 84 | 1016.9 |
| 20260905060706 | 62 | 292 | 0.0 | 1.0 | 0.01 | 0.01 | 0.01 | 84 | 1017.2 |
| 20260905060205 | 62 | 315 | 0.0 | 3.0 | 0.00 | 0.00 | 0.00 | 83 | 1016.8 |
| 20260905055705 | 62 | 315 | 0.0 | 3.0 | 0.00 | 0.00 | 0.00 | 82 | 1016.8 |
| 20260905055206 | 62 | 315 | 0.0 | 1.0 | 0.00 | 0.00 | 0.00 | 82 | 1016.7 |
| 20260905054705 | 62 | 321 | 0.0 | 1.0 | 0.00 | 0.00 | 0.00 | 82 | 1016.6 |
| 20260905054206 | 62 | 246 | 0.0 | 1.0 | 0.00 | 0.00 | 0.00 | 81 | 1016.6 |
| 20260905053705 | 63 | 248 | 0.0 | 0.0 | 0.00 | 0.00 | 0.00 | 82 | 1016.2 |
| 20260905053205 | 63 | 256 | 0.0 | 0.0 | 0.00 | 0.00 | 0.00 | 82 | 1016.0 |
| 20260905052726 | 63 | 257 | 0.0 | 1.0 | 0.00 | 0.00 | 0.00 | 81 | 1016.1 |
| 20260905052205 | 63 | 257 | 0.0 | 1.0 | 0.00 | 0.00 | 0.00 | 80 | 1016.2 |
| 20260905051705 | 63 | 257 | 0.0 | 1.0 | 0.00 | 0.00 | 0.00 | 80 | 1016.2 |
| 20260905051205 | 63 | 90 | 0.0 | 0.0 | 0.00 | 0.00 | 0.00 | 79 | 1016.0 |
| 20260905050705 | 64 | 78 | 0.0 | 0.0 | 0.00 | 0.00 | 0.00 | 80 | 1015.6 |
| 20260905050206 | 64 | 78 | 0.0 | 0.0 | 0.00 | 0.00 | 0.00 | 79 | 1015.6 |
| 20260905045706 | 64 | 76 | 0.0 | 0.0 | 0.00 | 0.00 | 0.00 | 76 | 1015.4 |
| 20260905045205 | 64 | 76 | 0.0 | 0.0 | 0.00 | 0.00 | 0.00 | 76 | 1015.4 |
| 20260905044705 | 64 | 64 | 0.0 | 0.0 | 0.00 | 0.00 | 0.00 | 75 | 1015.3 |
| 20260905044206 | 64 | 65 | 0.0 | 0.0 | 0.00 | 0.00 | 0.00 | 75 | 1015.1 |
| 20260905043706 | 64 | 65 | 0.0 | 0.0 | 0.00 | 0.00 | 0.00 | 75 | 1014.9 |
| 20260905043206 | 64 | 65 | 0.0 | 0.0 | 0.00 | 0.00 | 0.00 | 75 | 1014.7 |
| 20260905041706 | 64 | 64 | 0.0 | 0.0 | 0.00 | 0.00 | 0.00 | 73 | 1014.5 |
| 20260905041205 | 64 | 64 | 0.0 | 0.0 | 0.00 | 0.00 | 0.00 | 73 | 1014.6 |
| 20260905040705 | 64 | 64 | 0.0 | 0.0 | 0.00 | 0.00 | 0.00 | 73 | 1014.4 |
| 20260905040230 | 64 | 63 | 0.0 | 5.0 | 0.00 | 0.00 | 0.00 | 73 | 1014.3 |
| 20260905035705 | 64 | 61 | 0.0 | 5.0 | 0.00 | 0.00 | 0.00 | 73 | 1014.0 |
| 20260905035206 | 64 | 61 | 0.0 | 5.0 | 0.00 | 0.00 | 0.00 | 73 | 1013.9 |
| 20260905034705 | 64 | 62 | 1.0 | 4.0 | 0.00 | 0.00 | 0.00 | 73 | 1013.7 |
| 20260905034206 | 64 | 28 | 0.0 | 5.0 | 0.00 | 0.00 | 0.00 | 74 | 1013.8 |
| 20260905033705 | 64 | 46 | 0.0 | 5.0 | 0.00 | 0.00 | 0.00 | 74 | 1013.8 |
| 20260905033205 | 64 | 75 | 0.0 | 5.0 | 0.00 | 0.00 | 0.00 | 74 | 1013.9 |
| 20260905032705 | 64 | 70 | 0.0 | 4.0 | 0.00 | 0.00 | 0.00 | 74 | 1014.1 |
| 20260905032206 | 64 | 69 | 0.0 | 5.0 | 0.00 | 0.00 | 0.00 | 74 | 1014.1 |
| 20260905031706 | 64 | 111 | 0.0 | 5.0 | 0.00 | 0.00 | 0.00 | 74 | 1014.2 |
| 20260905030214 | 64 | 50 | 1.0 | 8.0 | 0.00 | 0.00 | 0.00 | 75 | 1014.2 |
| 20260905025206 | 64 | 72 | 1.0 | 8.0 | 0.00 | 0.00 | 0.00 | 75 | 1014.5 |
| 20260905024706 | 64 | 79 | 1.0 | 5.0 | 0.00 | 0.00 | 0.00 | 76 | 1014.4 |
| 20260905024206 | 65 | 55 | 0.0 | 1.0 | 0.00 | 0.00 | 0.00 | 76 | 1014.4 |
| 20260905023705 | 65 | 42 | 0.0 | 2.0 | 0.00 | 0.00 | 0.00 | 76 | 1014.3 |
| 20260905023205 | 65 | 335 | 0.0 | 7.0 | 0.00 | 0.00 | 0.00 | 75 | 1014.3 |
| 20260905022705 | 65 | 333 | 0.0 | 10.0 | 0.00 | 0.00 | 0.00 | 74 | 1014.4 |
| 20260905021705 | 65 | 49 | 3.0 | 11.0 | 0.00 | 0.00 | 0.00 | 73 | 1014.1 |
| 20260905021206 | 65 | 46 | 4.0 | 11.0 | 0.00 | 0.00 | 0.00 | 73 | 1013.8 |
| 20260905020705 | 65 | 24 | 5.0 | 11.0 | 0.00 | 0.00 | 0.00 | 73 | 1013.9 |
| 20260905015206 | 64 | 57 | 1.0 | 10.0 | 0.00 | 0.00 | 0.00 | 79 | 1013.6 |
| 20260905014206 | 63 | 14 | 0.0 | 2.0 | 0.00 | 0.00 | 0.00 | 82 | 1013.3 |
| 20260905013705 | 63 | 32 | 0.0 | 2.0 | 0.00 | 0.00 | 0.00 | 83 | 1012.9 |
| 20260905013205 | 63 | 195 | 0.0 | 2.0 | 0.00 | 0.00 | 0.00 | 83 | 1012.7 |
| 20260905012705 | 63 | 195 | 0.0 | 2.0 | 0.00 | 0.00 | 0.00 | 83 | 1012.5 |
| 20260905012205 | 63 | 194 | 0.0 | 0.0 | 0.00 | 0.00 | 0.00 | 83 | 1012.4 |
| 20260905011706 | 63 | 304 | 0.0 | 3.0 | 0.00 | 0.00 | 0.00 | 83 | 1012.4 |
| 20260905011205 | 63 | 304 | 0.0 | 3.0 | 0.00 | 0.00 | 0.00 | 83 | 1012.3 |
| 20260905010705 | 63 | 306 | 0.0 | 3.0 | 0.00 | 0.00 | 0.00 | 83 | 1012.2 |
| 20260905010206 | 63 | 325 | 0.0 | 3.0 | 0.00 | 0.00 | 0.00 | 82 | 1012.1 |
| 20260905005705 | 63 | 318 | 0.0 | 2.0 | 0.00 | 0.00 | 0.00 | 82 | 1012.0 |
| 20260905005205 | 63 | 322 | 0.0 | 1.0 | 0.00 | 0.00 | 0.00 | 82 | 1011.9 |
| 20260905004705 | 63 | 259 | 0.0 | 0.0 | 0.00 | 0.00 | 0.00 | 82 | 1011.7 |
| 20260905004205 | 63 | 259 | 0.0 | 0.0 | 0.00 | 0.00 | 0.00 | 82 | 1011.7 |
| 20260905003705 | 63 | 259 | 0.0 | 0.0 | 0.00 | 0.00 | 0.00 | 82 | 1011.6 |
| 20260905003206 | 63 | 234 | 0.0 | 0.0 | 0.00 | 0.00 | 0.00 | 82 | 1011.5 |
| 20260905002706 | 64 | 233 | 0.0 | 0.0 | 0.00 | 0.00 | 0.00 | 82 | 1011.6 |
| 20260905002205 | 64 | 221 | 0.0 | 0.0 | 0.00 | 0.00 | 0.00 | 81 | 1011.5 |
| 20260905001705 | 64 | 221 | 0.0 | 0.0 | 0.00 | 0.00 | 0.00 | 81 | 1011.5 |
| 20260905001206 | 64 | 221 | 0.0 | 0.0 | 0.00 | 0.00 | 0.00 | 81 | 1011.5 |
| 20260905000706 | 64 | 221 | 0.0 | 0.0 | 0.00 | 0.00 | 0.00 | 80 | 1011.5 |
| 20260905000206 | 64 | 221 | 0.0 | 0.0 | 0.00 | 0.00 | 0.00 | 80 | 1011.5 |
| 20260904235705 | 64 | 221 | 0.0 | 0.0 | 0.00 | 0.00 | 0.00 | 79 | 1011.5 |
| 20260904235205 | 64 | 217 | 0.0 | 0.0 | 0.00 | 0.00 | 0.00 | 78 | 1011.5 |
| 20260904234206 | 64 | 200 | 0.0 | 0.0 | 0.00 | 0.00 | 0.00 | 76 | 1011.5 |
| 20260904233706 | 64 | 200 | 0.0 | 0.0 | 0.00 | 0.00 | 0.00 | 76 | 1011.6 |
| 20260904233205 | 65 | 200 | 0.0 | 0.0 | 0.00 | 0.00 | 0.00 | 76 | 1011.6 |
| 20260904232705 | 65 | 200 | 0.0 | 2.0 | 0.00 | 0.00 | 0.00 | 75 | 1011.6 |
| 20260904232206 | 65 | 200 | 0.0 | 2.0 | 0.00 | 0.00 | 0.00 | 75 | 1011.6 |
| 20260904231705 | 65 | 200 | 0.0 | 2.0 | 0.00 | 0.00 | 0.00 | 74 | 1011.7 |
| 20260904231205 | 65 | 200 | 0.0 | 0.0 | 0.00 | 0.00 | 0.00 | 73 | 1011.7 |
| 20260904230705 | 66 | 277 | 0.0 | 0.0 | 0.00 | 0.00 | 0.00 | 73 | 1011.7 |
| 20260904230223 | 66 | 279 | 0.0 | 0.0 | 0.00 | 0.00 | 0.00 | 72 | 1011.7 |
| 20260904225705 | 66 | 279 | 0.0 | 0.0 | 0.00 | 0.00 | 0.00 | 71 | 1011.7 |
| 20260904225205 | 67 | 279 | 0.0 | 0.0 | 0.00 | 0.00 | 0.00 | 71 | 1011.6 |
| 20260904224207 | 67 | 26 | 0.0 | 0.0 | 0.00 | 0.00 | 0.00 | 69 | 1011.4 |
| 20260904222706 | 69 | 5 | 0.0 | 0.0 | 0.00 | 0.00 | 0.00 | 66 | 1011.5 |
| 20260904222205 | 69 | 5 | 0.0 | 0.0 | 0.00 | 0.00 | 0.00 | 66 | 1011.4 |
| 20260904221705 | 70 | 5 | 0.0 | 0.0 | 0.00 | 0.00 | 0.00 | 64 | 1011.3 |
| 20260904221205 | 70 | 5 | 0.0 | 3.0 | 0.00 | 0.00 | 0.00 | 64 | 1011.4 |
| 20260904220705 | 71 | 5 | 0.0 | 6.0 | 0.00 | 0.00 | 0.00 | 63 | 1011.3 |
| 20260904220205 | 71 | 5 | 0.0 | 6.0 | 0.00 | 0.00 | 0.00 | 62 | 1011.4 |
| 20260904215705 | 71 | 170 | 1.0 | 6.0 | 0.00 | 0.00 | 0.00 | 61 | 1011.3 |
| 20260904215205 | 71 | 217 | 2.0 | 8.0 | 0.00 | 0.00 | 0.00 | 61 | 1011.3 |
| 20260904214206 | 71 | 198 | 1.0 | 6.0 | 0.00 | 0.00 | 0.00 | 62 | 1011.3 |
| 20260904213705 | 71 | 208 | 1.0 | 6.0 | 0.00 | 0.00 | 0.00 | 62 | 1011.4 |
| 20260904213205 | 71 | 220 | 1.0 | 9.0 | 0.00 | 0.00 | 0.00 | 62 | 1011.4 |
| 20260904212205 | 71 | 238 | 0.0 | 2.0 | 0.00 | 0.00 | 0.00 | 61 | 1011.5 |
| 20260904211706 | 71 | 200 | 0.0 | 2.0 | 0.00 | 0.00 | 0.00 | 61 | 1011.7 |
| 20260904211206 | 72 | 240 | 0.0 | 2.0 | 0.00 | 0.00 | 0.00 | 60 | 1011.7 |
| 20260904205205 | 74 | 244 | 0.0 | 5.0 | 0.00 | 0.00 | 0.00 | 57 | 1011.9 |
| 20260904204705 | 74 | 227 | 0.0 | 6.0 | 0.00 | 0.00 | 0.00 | 57 | 1012.0 |
| 20260904204205 | 74 | 237 | 1.0 | 6.0 | 0.00 | 0.00 | 0.00 | 56 | 1011.9 |
| 20260904203706 | 74 | 242 | 1.0 | 7.0 | 0.00 | 0.00 | 0.00 | 56 | 1011.9 |
| 20260904203205 | 74 | 226 | 0.0 | 7.0 | 0.00 | 0.00 | 0.00 | 56 | 1012.0 |
| 20260904202206 | 74 | 224 | 0.0 | 4.0 | 0.00 | 0.00 | 0.00 | 56 | 1012.0 |
| 20260904201705 | 74 | 208 | 0.0 | 6.0 | 0.00 | 0.00 | 0.00 | 56 | 1012.0 |
| 20260904201205 | 74 | 219 | 1.0 | 6.0 | 0.00 | 0.00 | 0.00 | 56 | 1012.1 |
| 20260904200705 | 74 | 225 | 1.0 | 6.0 | 0.00 | 0.00 | 0.00 | 55 | 1012.1 |
| 20260904200206 | 74 | 218 | 1.0 | 6.0 | 0.00 | 0.00 | 0.00 | 55 | 1012.1 |
| 20260904195706 | 74 | 209 | 1.0 | 7.0 | 0.00 | 0.00 | 0.00 | 55 | 1012.2 |
| 20260904195205 | 74 | 201 | 2.0 | 9.0 | 0.00 | 0.00 | 0.00 | 55 | 1012.3 |
| 20260904194706 | 74 | 219 | 1.0 | 9.0 | 0.00 | 0.00 | 0.00 | 55 | 1012.3 |
| 20260904194207 | 74 | 242 | 1.0 | 6.0 | 0.00 | 0.00 | 0.00 | 55 | 1012.3 |
| 20260904193705 | 74 | 210 | 1.0 | 5.0 | 0.00 | 0.00 | 0.00 | 55 | 1012.3 |
| 20260904193205 | 74 | 227 | 1.0 | 5.0 | 0.00 | 0.00 | 0.00 | 55 | 1012.3 |
| 20260904192705 | 74 | 213 | 1.0 | 8.0 | 0.00 | 0.00 | 0.00 | 55 | 1012.3 |
| 20260904191205 | 75 | 205 | 1.0 | 8.0 | 0.00 | 0.00 | 0.00 | 54 | 1012.4 |